EA3DKP Weather Reports


Display with metric or nautical units.
time (UTC)temp
F
wind
direction
speed
MPH
gust
MPH
rain 1hr
in
rain 24hr
in
rain mn
in
humidity
%
barometer
mb
20260510053050 52 5 0.0 0.0 0.00 0.00 0.33 90 1009.2
20260510051554 52 5 0.0 0.0 0.00 0.00 0.33 90 1009.2
20260510050050 52 5 0.0 0.0 0.00 0.00 0.33 89 1009.1
20260510044547 53 5 0.0 0.0 0.00 0.00 0.33 90 1009.0
20260510043046 53 5 0.0 0.0 0.00 0.00 0.33 89 1009.2
20260510041532 53 5 0.0 0.0 0.00 0.00 0.33 89 1009.0
20260510040035 53 5 0.0 0.0 0.00 0.00 0.33 89 1009.3
20260510034531 53 5 0.0 0.0 0.00 0.00 0.33 89 1009.2
20260510033030 54 5 0.0 0.0 0.00 0.00 0.33 89 1009.3
20260510031528 54 5 0.0 0.0 0.00 0.00 0.33 89 1009.3
20260510030028 54 5 0.0 0.0 0.00 0.00 0.33 89 1009.4
20260510024527 55 5 0.0 0.0 0.00 0.00 0.33 89 1009.4
20260510023027 55 5 0.0 0.0 0.00 0.00 0.33 89 1009.2
20260510021516 55 5 0.0 0.0 0.00 0.00 0.33 89 1009.2
20260510020006 55 5 0.0 0.0 0.00 0.00 0.33 89 1009.3
20260510014548 55 5 0.0 0.0 0.00 0.00 0.33 89 1009.3
20260510013045 56 5 0.0 0.0 0.00 0.00 0.33 89 1009.4
20260510011533 57 5 0.0 0.0 0.00 0.00 0.33 89 1009.6
20260510010031 57 5 0.0 0.0 0.00 0.00 0.33 89 1009.9
20260510004531 57 5 0.0 0.0 0.00 0.00 0.32 89 1010.1
20260510003030 57 5 0.0 0.0 0.00 0.00 0.32 89 1010.3
20260510001529 57 5 0.0 0.0 0.00 0.00 0.32 89 1010.5
20260510000035 57 5 0.0 0.0 0.00 0.00 0.32 89 1010.9
20260509234538 57 5 0.0 0.0 0.00 0.00 0.32 89 1011.1
20260509233028 58 5 0.0 0.0 0.00 0.00 0.32 89 1011.3
20260509231518 58 5 0.0 0.0 0.00 0.00 0.31 88 1011.3
20260509230016 58 5 0.0 0.0 0.00 0.00 0.31 88 1011.4
20260509224528 58 5 0.0 0.0 0.00 0.00 0.31 88 1011.4
20260509223015 58 360 0.0 0.0 0.00 0.00 0.30 88 1011.3
20260509221514 58 360 0.0 0.0 0.00 0.00 0.30 88 1011.4
20260509220013 58 360 0.0 0.0 0.00 0.00 0.28 88 1011.3
20260509214512 58 360 0.0 0.0 0.00 0.00 0.27 88 1011.3
20260509213012 58 360 0.0 0.0 0.00 0.00 0.27 88 1011.3
20260509211559 58 360 0.0 0.0 0.00 0.00 0.25 88 1011.2
20260509210104 58 360 0.0 0.0 0.00 0.00 0.24 88 1011.1
20260509204606 58 5 0.0 0.0 0.00 0.00 0.24 87 1010.7
20260509203110 58 360 0.0 0.0 0.00 0.00 0.24 87 1010.2
20260509201556 59 138 0.0 0.0 0.00 0.00 0.24 87 1009.8
20260509200056 58 360 0.0 0.0 0.00 0.00 0.24 87 1009.2
20260509194555 58 136 0.0 0.0 0.00 0.00 0.24 87 1008.1
20260509193055 58 360 0.0 0.0 0.00 0.00 0.24 87 1007.3
20260509191539 58 360 0.0 0.0 0.00 0.00 0.22 87 1008.8
20260509190039 58 169 0.0 0.0 0.00 0.00 0.20 86 1009.5
20260509184544 58 360 0.0 0.0 0.00 0.00 0.17 86 1009.9
20260509183035 58 360 0.0 0.0 0.00 0.00 0.17 85 1010.6
20260509181531 59 360 0.0 0.0 0.00 0.00 0.15 84 1010.8
20260509180049 60 177 0.0 0.0 0.00 0.00 0.13 83 1010.7
20260509174529 60 360 0.0 0.0 0.00 0.00 0.09 81 1010.4
20260509173022 62 360 0.0 0.0 0.00 0.00 0.06 80 1010.3
20260509171519 64 360 0.0 0.0 0.00 0.00 0.03 78 1010.2
20260509170007 64 360 0.0 0.0 0.00 0.00 0.00 74 1010.1
20260509164506 64 172 0.0 0.0 0.00 0.00 0.00 72 1009.9
20260509163004 64 172 0.0 0.0 0.00 0.00 0.00 76 1009.3
20260509161504 64 360 0.0 0.0 0.00 0.00 0.00 75 1009.0
20260509160004 65 160 0.0 0.0 0.00 0.00 0.00 75 1009.2
20260509154612 65 360 0.0 0.0 0.00 0.00 0.00 74 1009.6
20260509153109 65 360 0.0 0.0 0.00 0.00 0.00 74 1009.7
20260509151604 65 140 0.0 0.0 0.00 0.00 0.00 73 1010.0
20260509150041 65 139 0.0 0.0 0.00 0.00 0.00 73 1010.5
20260509144540 66 136 0.0 0.0 0.00 0.00 0.00 73 1010.3
20260509143042 66 137 0.0 0.0 0.00 0.00 0.00 70 1010.4
20260509141545 66 190 0.0 0.0 0.00 0.00 0.00 63 1010.4
20260509140039 67 238 0.0 0.0 0.00 0.00 0.00 66 1010.3
20260509134540 68 360 0.0 0.0 0.00 0.00 0.00 64 1010.4
20260509133051 69 250 0.0 0.0 0.00 0.00 0.00 68 1010.6
20260509131535 68 360 0.0 0.0 0.00 0.00 0.00 68 1010.9
20260509130025 68 360 0.0 0.0 0.00 0.00 0.00 70 1010.9
20260509124521 68 253 0.0 0.0 0.00 0.00 0.00 69 1011.4
20260509123020 68 360 0.0 0.0 0.00 0.00 0.00 70 1011.9
20260509121522 68 240 0.0 0.0 0.00 0.00 0.00 70 1012.0
20260509120023 68 360 0.0 0.0 0.00 0.00 0.00 71 1011.9
20260509114520 68 253 0.0 0.0 0.00 0.00 0.00 71 1011.6
20260509113019 68 244 0.0 0.0 0.00 0.00 0.00 73 1011.8
20260509111518 68 360 0.0 0.0 0.00 0.00 0.00 73 1012.1
20260509110001 68 224 0.0 0.0 0.00 0.00 0.00 73 1012.1
20260509104611 68 360 0.0 0.0 0.00 0.00 0.00 73 1012.5
20260509103100 68 212 0.0 0.0 0.00 0.00 0.00 72 1012.4
20260509101549 68 360 0.0 0.0 0.00 0.00 0.00 73 1012.4
20260509100048 68 209 0.0 0.0 0.00 0.00 0.00 72 1012.3
20260509094547 68 360 0.0 0.0 0.00 0.00 0.00 72 1012.2
20260509093047 68 360 0.0 0.0 0.00 0.00 0.00 72 1011.7
20260509091547 67 360 0.0 0.0 0.00 0.00 0.00 75 1011.6
20260509090053 67 360 0.0 0.0 0.00 0.00 0.00 78 1011.8
20260509084545 66 360 0.0 0.0 0.00 0.00 0.00 81 1012.1
20260509083032 65 360 0.0 0.0 0.00 0.00 0.00 84 1012.0
20260509081546 64 360 0.0 0.0 0.00 0.00 0.00 85 1012.2
20260509080032 63 360 0.0 0.0 0.00 0.00 0.00 87 1012.3
20260509074531 62 360 0.0 0.0 0.00 0.00 0.00 87 1012.3
20260509073042 61 360 0.0 0.0 0.00 0.00 0.00 88 1012.4
20260509071539 61 360 0.0 0.0 0.00 0.00 0.00 88 1012.3
20260509070039 60 360 0.0 0.0 0.00 0.00 0.00 88 1012.4
20260509064531 59 360 0.0 0.0 0.00 0.00 0.00 88 1012.4
20260509063017 59 360 0.0 0.0 0.00 0.00 0.00 88 1012.4
20260509061510 58 360 0.0 0.0 0.00 0.00 0.00 88 1012.6
20260509060112 58 360 0.0 0.0 0.00 0.00 0.00 88 1012.6
20260509054558 58 360 0.0 0.0 0.00 0.00 0.00 88 1012.5